Content
SEND FEEDBACK

Daily
Averages
Monthly
Summary
Israel

MIKHROT TIMNA, ISRAEL


Home > Middle East > Israel
Elevation: 167 feet     Latitude: 29 36N     Longitude: 035 00E

WEATHER
 
SELECT A DAY
Number of Records: 124,808;   Date Range: 2/20/97 - 8/10/14
 
SHARE

PRINT THIS DATA

[ ← Previous Day ]
WEATHER ALMANAC - JANUARY 31, 2013
[ Next Day → ]
[ °C ]   °F
Weather ElementAverageHighLow
Temperature58.4 °F60.8 °F (12:00 am)54 °F (3:00 pm)
Dewpoint39.9 °F44.6 °F (3:00 pm)33.8 °F (12:00 am)
Humidity47.8 %67 % (3:00 pm)27 % (6:00 am)
Barometer29.85 in29.91 in (9:00 pm)29.82 in (6:00 am)
Wind Speed4.2 mph23 mph (2:00 pm)
Weather ElementAverage
Visibility6 mi
Wind DirectionESE (105.8 °)

Weather ElementTotal
Precipitation---
Heating Degree Days7.6 (Base 65)
Growing Degree Days7.4 (Base 50)
Averaged from 24 records on January 31, 2013
WEATHER CONDITIONS BREAKOUT
WIND DIRECTION BREAKOUT
WEATHER BY HOUR - JANUARY 31, 2013
[ °C ]   °F
Local TimeTemperatureDewpointHumidityBarometerVisibilityWind DirectionWind SpeedGust SpeedPrecipitationEventsConditions
12:00 AM60.8 °F33.8 °F36 %29.86 in6.2 miCalmScattered Clouds
3:00 AM58.0 °F35.0 °F30 %29.85 in6.0 miCalmPartly Cloudy
3:00 AM59.0 °F35.6 °F42 %29.86 in6.2 miCalmScattered Clouds
6:00 AM59.0 °F34.0 °F27 %29.82 in6.0 miCalmPartly Cloudy
6:00 AM59.0 °F33.8 °F39 %29.83 in6.2 miCalmScattered Clouds
9:00 AM59.0 °F37.4 °F45 %29.83 in6.2 miWest (260°)6.9 mphMostly Cloudy
9:00 AM58.0 °F36.0 °F33 %29.83 in6.0 miWest (260°)6.9 mphMostly Cloudy
10:00 AM59.0 °F37.4 °F45 %29.83 in6.2 miWSW (250°)9.2 mphMostly Cloudy
11:00 AM60.8 °F37.4 °F42 %29.83 in6.2 miCalmMostly Cloudy
12:00 PM59.0 °F40.0 °F38 %29.82 in6.0 miCalmOvercast
12:00 PM59.0 °F41.0 °F51 %29.83 in6.2 miCalmOvercast
1:00 PM60.8 °F41.0 °F48 %29.83 in6.2 miWest (260°)11.5 mphOvercast
2:00 PM60.8 °F39.2 °F45 %29.86 in3.7 miWNW (300°)23.0 mphRainRain
3:00 PM54.0 °F44.0 °F61 %29.85 in6.0 miEast (100°)9.2 mphMostly Cloudy
3:00 PM55.4 °F44.6 °F67 %29.86 in6.2 miEast (100°)9.2 mphMostly Cloudy
4:00 PM55.4 °F44.6 °F67 %29.86 in6.2 miEast (100°)9.2 mphMostly Cloudy
5:00 PM55.4 °F44.6 °F67 %29.86 in6.2 miEast (100°)9.2 mphMostly Cloudy
6:00 PM60.8 °F41.0 °F48 %29.86 in6.2 miCalmMostly Cloudy
6:00 PM60.0 °F41.0 °F38 %29.88 in6.0 miCalmMostly Cloudy
7:00 PM59.0 °F41.0 °F51 %29.86 in6.2 miCalmMostly Cloudy
8:00 PM59.0 °F41.0 °F51 %29.86 in6.2 miWest (280°)5.8 mphMostly Cloudy
9:00 PM57.0 °F44.0 °F51 %29.91 in6.0 miCalmPartly Cloudy
9:00 PM57.2 °F44.6 °F63 %29.89 in6.2 miCalmMostly Cloudy
10:00 PM57.2 °F44.6 °F63 %29.89 in6.2 miCalmMostly Cloudy
Hourly data recorded from OJAQ, located miles away from Mikhrot Timna, Israel







STORIES FROM OUR PARTNERS